Time,TemperatureF,DewpointF,PressureIn,WindDirection,WindDirectionDegrees,WindSpeedMPH,WindSpeedGustMPH,Humidity,HourlyPrecipIn,Conditions,Clouds,dailyrainin,SolarRadiationWatts/m^2,SoftwareType,DateUTC
2013-02-21 00:00:00,21.5,15.7,30.30,WNW,291,1.9,4.6,78,0.00,-SN,,0.00,0.0,WeatherDisplay:10.37,2013-02-21 05:00:00,
2013-02-21 00:05:00,21.5,15.1,30.30,NW,311,4.9,9.2,76,0.00,-SN,,0.00,0.0,WeatherDisplay:10.37,2013-02-21 05:05:00,
2013-02-21 00:10:00,21.5,15.4,30.30,NNE,15,3.4,8.1,77,0.00,-SN,,0.00,0.0,WeatherDisplay:10.37,2013-02-21 05:10:00,
2013-02-21 00:15:00,21.5,15.4,30.30,WNW,292,4.1,7.0,77,0.00,-SN,,0.00,0.0,WeatherDisplay:10.37,2013-02-21 05:15:00,
2013-02-21 00:20:00,21.5,15.4,30.30,WNW,293,2.3,3.5,77,0.00,-SN,,0.00,0.0,WeatherDisplay:10.37,2013-02-21 05:20:00,
2013-02-21 00:25:00,21.4,15.6,30.30,North,11,2.6,4.6,78,0.00,-SN,,0.00,0.0,WeatherDisplay:10.37,2013-02-21 05:25:00,
2013-02-21 00:30:00,21.3,15.2,30.30,West,275,3.8,6.9,77,0.00,-SN,,0.00,0.0,WeatherDisplay:10.37,2013-02-21 05:30:00,
2013-02-21 00:35:00,21.3,15.2,30.30,WNW,289,2.0,3.5,77,0.00,-SN,,0.00,0.0,WeatherDisplay:10.37,2013-02-21 05:35:00,
2013-02-21 00:40:00,21.3,15.8,30.30,NNW,348,1.6,3.5,79,0.00,-SN,,0.00,0.0,WeatherDisplay:10.37,2013-02-21 05:40:00,
2013-02-21 00:45:00,21.2,15.7,30.30,NNW,340,1.9,3.5,79,0.00,-SN,,0.00,0.0,WeatherDisplay:10.37,2013-02-21 05:45:00,
2013-02-21 00:50:00,21.2,16.0,30.30,NNW,344,2.2,3.5,80,0.00,-SN,,0.00,0.0,WeatherDisplay:10.37,2013-02-21 05:50:00,
2013-02-21 00:56:00,21.1,16.2,30.31,NNW,346,3.1,4.0,81,0.00,-SN,,0.00,0.0,WeatherDisplay:10.37,2013-02-21 05:56:00,
2013-02-21 01:01:00,21.0,16.1,30.31,NNW,347,2.7,3.5,81,0.00,-SN,,0.00,0.0,WeatherDisplay:10.37,2013-02-21 06:01:00,
2013-02-21 01:06:00,20.9,15.7,30.31,NNW,343,1.8,3.5,80,0.00,-SN,,0.00,0.0,WeatherDisplay:10.37,2013-02-21 06:06:00,
2013-02-21 01:11:00,20.9,15.7,30.31,WNW,286,2.1,3.5,80,0.00,-SN,,0.00,0.0,WeatherDisplay:10.37,2013-02-21 06:11:00,
2013-02-21 01:16:00,20.9,16.0,30.31,NW,315,3.0,10.0,81,0.00,-SN,-SN,0.00,0.0,WeatherDisplay:10.37,2013-02-21 06:16:00,
2013-02-21 01:21:00,20.8,15.6,30.31,West,279,2.7,3.5,80,0.00,-SN,,0.00,0.0,WeatherDisplay:10.37,2013-02-21 06:21:00,
2013-02-21 01:26:00,20.8,15.9,30.31,WNW,302,2.8,5.8,81,0.00,-SN,,0.00,0.0,WeatherDisplay:10.37,2013-02-21 06:26:00,
2013-02-21 01:31:00,20.8,15.6,30.31,WNW,296,2.2,3.5,80,0.00,-SN,,0.00,0.0,WeatherDisplay:10.37,2013-02-21 06:31:00,
2013-02-21 01:36:00,20.8,15.6,30.32,North,355,2.4,4.0,80,0.00,-SN,,0.00,0.0,WeatherDisplay:10.37,2013-02-21 06:36:00,
2013-02-21 01:41:00,20.8,15.6,30.32,NNE,28,1.3,4.0,80,0.00,-SN,,0.00,0.0,WeatherDisplay:10.37,2013-02-21 06:41:00,
2013-02-21 01:46:00,20.8,15.6,30.32,NW,314,1.4,3.5,80,0.00,-SN,,0.00,0.0,WeatherDisplay:10.37,2013-02-21 06:46:00,
2013-02-21 01:51:00,20.8,15.6,30.32,WNW,296,2.4,4.6,80,0.00,-SN,,0.00,0.0,WeatherDisplay:10.37,2013-02-21 06:51:00,
2013-02-21 01:56:00,20.8,15.3,30.32,NW,305,1.5,3.5,79,0.00,-SN,,0.00,0.0,WeatherDisplay:10.37,2013-02-21 06:56:00,
2013-02-21 02:01:00,20.8,15.3,30.33,NW,304,3.4,9.2,79,0.00,-SN,,0.00,0.0,WeatherDisplay:10.37,2013-02-21 07:01:00,
2013-02-21 02:06:00,20.9,15.4,30.33,NNW,329,1.5,2.3,79,0.00,-SN,,0.00,0.0,WeatherDisplay:10.37,2013-02-21 07:06:00,
2013-02-21 02:11:00,20.9,15.4,30.33,WNW,300,1.7,3.5,79,0.00,-SN,,0.00,0.0,WeatherDisplay:10.37,2013-02-21 07:11:00,
2013-02-21 02:16:00,20.9,15.7,30.34,NW,307,0.9,2.3,80,0.00,-SN,,0.00,0.0,WeatherDisplay:10.37,2013-02-21 07:16:00,
2013-02-21 02:21:00,20.9,15.7,30.34,NNW,332,1.8,3.5,80,0.00,-SN,,0.00,0.0,WeatherDisplay:10.37,2013-02-21 07:21:00,
2013-02-21 02:26:00,20.9,15.7,30.34,WNW,282,1.5,3.5,80,0.00,-SN,,0.00,0.0,WeatherDisplay:10.37,2013-02-21 07:26:00,
2013-02-21 02:31:00,20.9,15.7,30.34,WNW,285,2.3,3.5,80,0.00,-SN,,0.00,0.0,WeatherDisplay:10.37,2013-02-21 07:31:00,
2013-02-21 02:36:00,20.9,15.7,30.34,WNW,290,2.2,3.5,80,0.00,-SN,,0.00,0.0,WeatherDisplay:10.37,2013-02-21 07:36:00,
2013-02-21 02:41:00,20.9,15.4,30.34,WNW,287,1.3,4.0,79,0.00,-SN,,0.00,0.0,WeatherDisplay:10.37,2013-02-21 07:41:00,
2013-02-21 02:46:00,20.9,15.4,30.34,WNW,285,3.5,8.1,79,0.00,-SN,,0.00,0.0,WeatherDisplay:10.37,2013-02-21 07:46:00,
2013-02-21 02:51:00,21.0,15.5,30.34,West,272,2.0,4.0,79,0.00,-SN,,0.00,0.0,WeatherDisplay:10.37,2013-02-21 07:51:00,
2013-02-21 02:56:00,21.0,15.5,30.34,NW,313,1.8,3.5,79,0.00,-SN,,0.00,0.0,WeatherDisplay:10.37,2013-02-21 07:56:00,
2013-02-21 03:01:00,21.0,15.5,30.33,WNW,297,1.2,3.5,79,0.00,-SN,,0.00,0.0,WeatherDisplay:10.37,2013-02-21 08:01:00,
2013-02-21 03:06:00,21.0,15.5,30.33,NW,322,2.3,3.5,79,0.00,-SN,,0.00,0.0,WeatherDisplay:10.37,2013-02-21 08:06:00,
2013-02-21 03:11:00,21.0,15.2,30.33,NW,305,2.2,4.6,78,0.00,-SN,,0.00,0.0,WeatherDisplay:10.37,2013-02-21 08:11:00,
2013-02-21 03:16:00,21.0,15.5,30.33,NW,307,3.0,3.5,79,0.00,-SN,,0.00,0.0,WeatherDisplay:10.37,2013-02-21 08:16:00,
2013-02-21 03:21:00,21.0,15.8,30.33,West,279,2.2,3.5,80,0.00,-SN,,0.00,0.0,WeatherDisplay:10.37,2013-02-21 08:21:00,
2013-02-21 03:26:00,21.0,15.8,30.33,West,275,1.5,3.5,80,0.00,-SN,,0.00,0.0,WeatherDisplay:10.37,2013-02-21 08:26:00,
2013-02-21 03:31:00,21.0,15.8,30.33,West,277,2.2,4.6,80,0.00,-SN,,0.00,0.0,WeatherDisplay:10.37,2013-02-21 08:31:00,
2013-02-21 03:36:00,21.1,15.9,30.33,NNW,346,2.8,6.9,80,0.00,-SN,,0.00,0.0,WeatherDisplay:10.37,2013-02-21 08:36:00,
2013-02-21 03:41:00,21.1,15.9,30.33,WNW,287,1.9,3.5,80,0.00,-SN,,0.00,0.0,WeatherDisplay:10.37,2013-02-21 08:41:00,
2013-02-21 03:46:00,21.1,15.9,30.33,WNW,288,1.3,3.5,80,0.00,-SN,,0.00,0.0,WeatherDisplay:10.37,2013-02-21 08:46:00,
2013-02-21 03:51:00,21.1,15.9,30.32,North,5,2.6,3.5,80,0.00,-SN,,0.00,0.0,WeatherDisplay:10.37,2013-02-21 08:51:00,
2013-02-21 03:56:00,21.0,15.8,30.32,NW,305,1.5,3.5,80,0.00,-SN,,0.00,0.0,WeatherDisplay:10.37,2013-02-21 08:56:00,
2013-02-21 04:01:00,21.0,16.1,30.32,WNW,302,0.7,1.1,81,0.00,-SN,,0.00,0.0,WeatherDisplay:10.37,2013-02-21 09:01:00,
2013-02-21 04:06:00,21.0,16.1,30.32,WNW,296,1.8,4.6,81,0.00,-SN,,0.00,0.0,WeatherDisplay:10.37,2013-02-21 09:06:00,
2013-02-21 04:11:00,21.0,16.1,30.33,NW,312,1.1,2.3,81,0.00,-SN,,0.00,0.0,WeatherDisplay:10.37,2013-02-21 09:11:00,
2013-02-21 04:16:00,21.0,16.4,30.33,North,350,1.5,3.5,82,0.00,-SN,,0.00,0.0,WeatherDisplay:10.37,2013-02-21 09:16:00,
2013-02-21 04:21:00,21.0,16.4,30.33,North,5,1.1,3.5,82,0.00,-SN,,0.00,0.0,WeatherDisplay:10.37,2013-02-21 09:21:00,
2013-02-21 04:26:00,20.9,16.3,30.33,North,5,0.5,1.1,82,0.00,-SN,,0.00,0.0,WeatherDisplay:10.37,2013-02-21 09:26:00,
2013-02-21 04:31:00,20.9,16.5,30.33,NW,325,0.5,1.1,83,0.00,-SN,,0.00,0.0,WeatherDisplay:10.37,2013-02-21 09:31:00,
2013-02-21 04:36:00,20.9,16.5,30.33,NW,319,0.8,2.3,83,0.00,-SN,,0.00,0.0,WeatherDisplay:10.37,2013-02-21 09:36:00,
2013-02-21 04:41:00,20.9,16.3,30.34,North,5,1.0,2.3,82,0.00,-SN,,0.00,0.0,WeatherDisplay:10.37,2013-02-21 09:41:00,
2013-02-21 04:46:00,20.9,16.5,30.34,NNW,343,2.9,5.8,83,0.00,-SN,,0.00,0.0,WeatherDisplay:10.37,2013-02-21 09:46:00,
2013-02-21 04:51:00,20.8,16.5,30.33,NNW,347,1.5,3.5,83,0.00,-SN,,0.00,0.0,WeatherDisplay:10.37,2013-02-21 09:51:00,
2013-02-21 04:56:00,20.8,16.5,30.33,North,351,2.0,3.5,83,0.00,-SN,,0.00,0.0,WeatherDisplay:10.37,2013-02-21 09:56:00,
2013-02-21 05:01:00,20.9,16.3,30.34,NNW,347,1.4,3.5,82,0.00,-SN,,0.00,0.0,WeatherDisplay:10.37,2013-02-21 10:01:00,
2013-02-21 05:06:00,20.9,16.3,30.34,NW,324,1.5,3.5,82,0.00,-SN,,0.00,0.0,WeatherDisplay:10.37,2013-02-21 10:06:00,
2013-02-21 05:11:00,20.9,16.3,30.34,NNW,347,1.3,3.5,82,0.00,-SN,,0.00,0.0,WeatherDisplay:10.37,2013-02-21 10:11:00,
2013-02-21 05:16:00,21.0,16.1,30.34,WNW,293,1.6,3.5,81,0.00,-SN,,0.00,0.0,WeatherDisplay:10.37,2013-02-21 10:16:00,
2013-02-21 05:21:00,21.0,16.4,30.35,NNW,337,1.3,2.3,82,0.00,-SN,,0.00,0.0,WeatherDisplay:10.37,2013-02-21 10:21:00,
2013-02-21 05:26:00,21.0,16.1,30.35,North,355,1.0,2.3,81,0.00,-SN,,0.00,0.0,WeatherDisplay:10.37,2013-02-21 10:26:00,
2013-02-21 05:31:00,21.0,16.1,30.35,WNW,284,2.3,3.5,81,0.00,-SN,,0.00,0.0,WeatherDisplay:10.37,2013-02-21 10:31:00,
2013-02-21 05:36:00,21.0,16.1,30.35,NNW,341,1.6,2.3,81,0.00,-SN,,0.00,0.0,WeatherDisplay:10.37,2013-02-21 10:36:00,
2013-02-21 05:41:00,21.1,16.2,30.35,NNW,331,1.3,2.3,81,0.00,-SN,,0.00,0.0,WeatherDisplay:10.37,2013-02-21 10:41:00,
2013-02-21 05:46:00,21.1,16.2,30.35,NW,319,1.2,3.5,81,0.00,-SN,,0.00,0.0,WeatherDisplay:10.37,2013-02-21 10:46:00,
2013-02-21 05:51:00,21.1,16.2,30.35,NNE,13,0.8,2.3,81,0.00,-SN,,0.00,0.0,WeatherDisplay:10.37,2013-02-21 10:51:00,
2013-02-21 05:56:00,21.0,15.8,30.35,NNE,23,2.6,3.5,80,0.00,-SN,,0.00,0.0,WeatherDisplay:10.37,2013-02-21 10:56:00,
2013-02-21 06:01:00,21.1,16.2,30.35,NNW,327,1.1,2.3,81,0.00,-SN,,0.00,0.0,WeatherDisplay:10.37,2013-02-21 11:01:00,
2013-02-21 06:06:00,21.1,15.9,30.36,NW,315,1.1,3.5,80,0.00,-SN,,0.00,0.0,WeatherDisplay:10.37,2013-02-21 11:06:00,
2013-02-21 06:11:00,21.1,15.9,30.36,North,5,1.7,3.5,80,0.00,-SN,,0.00,0.0,WeatherDisplay:10.37,2013-02-21 11:11:00,
2013-02-21 06:16:00,21.1,15.9,30.36,North,360,1.6,3.5,80,0.00,-SN,,0.00,0.0,WeatherDisplay:10.37,2013-02-21 11:16:00,
2013-02-21 06:21:00,21.1,15.9,30.36,North,355,1.5,3.5,80,0.00,-SN,,0.00,0.0,WeatherDisplay:10.37,2013-02-21 11:21:00,
2013-02-21 06:26:00,21.1,15.9,30.36,NNW,327,2.1,3.5,80,0.00,-SN,,0.00,0.0,WeatherDisplay:10.37,2013-02-21 11:26:00,
2013-02-21 06:31:00,21.2,16.0,30.36,NW,309,0.5,3.5,80,0.00,-SN,,0.00,0.0,WeatherDisplay:10.37,2013-02-21 11:31:00,
2013-02-21 06:36:00,21.2,16.0,30.36,NW,318,1.3,2.3,80,0.00,-SN,,0.00,0.0,WeatherDisplay:10.37,2013-02-21 11:36:00,
2013-02-21 06:41:00,21.2,15.7,30.36,NNE,17,3.3,6.0,79,0.00,-SN,,0.00,0.0,WeatherDisplay:10.37,2013-02-21 11:41:00,
2013-02-21 06:46:00,21.3,15.8,30.36,NW,305,2.5,3.5,79,0.00,-SN,,0.00,0.0,WeatherDisplay:10.37,2013-02-21 11:46:00,
2013-02-21 06:51:00,21.2,15.7,30.36,NNE,27,2.0,3.5,79,0.00,-SN,,0.00,0.0,WeatherDisplay:10.37,2013-02-21 11:51:00,
2013-02-21 06:56:00,21.2,15.7,30.36,NNE,12,2.2,3.5,79,0.00,-SN,,0.00,0.0,WeatherDisplay:10.37,2013-02-21 11:56:00,
2013-02-21 07:01:00,21.3,15.8,30.36,NNE,13,1.2,3.0,79,0.00,-SN,,0.00,0.0,WeatherDisplay:10.37,2013-02-21 12:01:00,
2013-02-21 07:06:00,21.3,15.8,30.37,NNW,330,2.4,3.5,79,0.00,-SN,,0.00,0.0,WeatherDisplay:10.37,2013-02-21 12:06:00,
2013-02-21 07:11:00,21.3,15.8,30.37,NNW,334,1.9,3.5,79,0.00,-SN,,0.00,0.0,WeatherDisplay:10.37,2013-02-21 12:11:00,
2013-02-21 07:16:00,21.3,15.5,30.38,North,10,2.2,3.5,78,0.00,-SN,,0.00,0.0,WeatherDisplay:10.37,2013-02-21 12:16:00,
2013-02-21 07:21:00,21.3,15.5,30.38,NW,311,2.6,3.5,78,0.00,-SN,,0.00,0.0,WeatherDisplay:10.37,2013-02-21 12:21:00,
2013-02-21 07:26:00,21.3,15.5,30.39,NNW,337,1.9,3.5,78,0.00,-SN,,0.00,0.0,WeatherDisplay:10.37,2013-02-21 12:26:00,
2013-02-21 07:31:00,21.4,15.6,30.39,NNW,344,1.8,4.6,78,0.00,-SN,,0.00,5.0,WeatherDisplay:10.37,2013-02-21 12:31:00,
2013-02-21 07:36:00,21.5,15.7,30.39,North,355,2.4,3.5,78,0.00,-SN,,0.00,7.0,WeatherDisplay:10.37,2013-02-21 12:36:00,
2013-02-21 07:41:00,21.5,15.7,30.40,WNW,298,2.5,4.6,78,0.00,-SN,,0.00,9.0,WeatherDisplay:10.37,2013-02-21 12:41:00,
2013-02-21 07:46:00,21.5,15.4,30.40,NE,51,2.1,6.9,77,0.00,-SN,,0.00,11.0,WeatherDisplay:10.37,2013-02-21 12:46:00,
2013-02-21 07:51:00,21.5,15.7,30.41,NNW,344,1.8,3.5,78,0.00,-SN,,0.00,12.0,WeatherDisplay:10.37,2013-02-21 12:51:00,
2013-02-21 07:56:00,21.6,15.8,30.41,NNE,18,2.1,4.6,78,0.00,-SN,,0.00,14.0,WeatherDisplay:10.37,2013-02-21 12:56:00,
2013-02-21 08:01:00,21.6,15.8,30.41,NNE,15,2.8,3.5,78,0.00,-SN,,0.00,18.0,WeatherDisplay:10.37,2013-02-21 13:01:00,
2013-02-21 08:06:00,21.6,15.5,30.41,WNW,288,3.1,4.6,77,0.00,-SN,,0.00,21.0,WeatherDisplay:10.37,2013-02-21 13:06:00,
2013-02-21 08:11:00,21.7,15.6,30.41,North,11,2.0,6.9,77,0.00,-SN,,0.00,25.0,WeatherDisplay:10.37,2013-02-21 13:11:00,
2013-02-21 08:16:00,21.6,15.5,30.41,WNW,286,4.6,8.1,77,0.00,-SN,,0.00,30.0,WeatherDisplay:10.37,2013-02-21 13:16:00,
2013-02-21 08:21:00,21.6,15.5,30.41,NW,325,3.2,5.8,77,0.00,-SN,,0.00,32.0,WeatherDisplay:10.37,2013-02-21 13:21:00,
2013-02-21 08:26:00,21.5,15.7,30.40,NNW,343,3.1,5.8,78,0.00,-SN,,0.00,35.0,WeatherDisplay:10.37,2013-02-21 13:26:00,
2013-02-21 08:31:00,21.6,16.1,30.40,NNE,23,2.6,4.6,79,0.00,-SN,,0.00,42.0,WeatherDisplay:10.37,2013-02-21 13:31:00,
2013-02-21 08:36:00,21.6,15.5,30.40,NNE,19,4.8,8.1,77,0.00,-SN,,0.00,46.0,WeatherDisplay:10.37,2013-02-21 13:36:00,
2013-02-21 08:41:00,21.5,15.4,30.40,NNE,21,4.7,6.9,77,0.00,-SN,,0.00,53.0,WeatherDisplay:10.37,2013-02-21 13:41:00,
2013-02-21 08:46:00,21.6,15.5,30.40,NNE,23,3.4,6.0,77,0.00,-SN,,0.00,56.0,WeatherDisplay:10.37,2013-02-21 13:46:00,
2013-02-21 08:51:00,21.6,15.5,30.41,NNE,17,2.7,6.9,77,0.00,-SN,,0.00,62.0,WeatherDisplay:10.37,2013-02-21 13:51:00,
2013-02-21 08:56:00,21.6,15.5,30.41,NNE,22,2.0,5.8,77,0.00,-SN,,0.00,67.0,WeatherDisplay:10.37,2013-02-21 13:56:00,
2013-02-21 09:01:00,21.7,15.6,30.41,North,5,4.0,7.0,77,0.00,-SN,,0.00,63.0,WeatherDisplay:10.37,2013-02-21 14:01:00,
2013-02-21 09:06:00,21.7,15.6,30.41,North,5,5.5,8.1,77,0.00,-SN,,0.00,72.0,WeatherDisplay:10.37,2013-02-21 14:06:00,
2013-02-21 09:11:00,21.6,15.5,30.41,NNE,16,4.5,5.8,77,0.00,-SN,,0.00,76.0,WeatherDisplay:10.37,2013-02-21 14:11:00,
2013-02-21 09:16:00,21.6,15.2,30.41,NNE,24,5.7,6.0,76,0.00,-SN,,0.00,83.0,WeatherDisplay:10.37,2013-02-21 14:16:00,
2013-02-21 09:21:00,21.6,15.2,30.41,NNE,24,4.0,6.9,76,0.00,-SN,,0.00,83.0,WeatherDisplay:10.37,2013-02-21 14:21:00,
2013-02-21 09:26:00,21.6,15.2,30.41,NNE,22,3.1,5.8,76,0.00,-SN,,0.00,88.0,WeatherDisplay:10.37,2013-02-21 14:26:00,
2013-02-21 09:31:00,21.7,15.6,30.41,North,5,3.8,5.8,77,0.00,-SN,,0.00,91.0,WeatherDisplay:10.37,2013-02-21 14:31:00,
2013-02-21 09:36:00,21.7,15.3,30.41,NE,34,2.1,4.0,76,0.00,-SN,,0.00,102.0,WeatherDisplay:10.37,2013-02-21 14:36:00,
2013-02-21 09:41:00,21.7,15.3,30.40,NE,39,2.6,5.8,76,0.00,-SN,,0.00,109.0,WeatherDisplay:10.37,2013-02-21 14:41:00,
2013-02-21 09:47:00,21.7,15.3,30.41,NNW,333,3.3,6.9,76,0.00,-SN,,0.00,109.0,WeatherDisplay:10.37,2013-02-21 14:47:00,
2013-02-21 09:52:00,21.6,15.2,30.41,ENE,74,3.6,9.2,76,0.00,-SN,,0.00,113.0,WeatherDisplay:10.37,2013-02-21 14:52:00,
2013-02-21 09:57:00,21.6,15.2,30.41,NNE,18,3.1,5.0,76,0.00,-SN,,0.00,121.0,WeatherDisplay:10.37,2013-02-21 14:57:00,
2013-02-21 10:02:00,21.6,14.9,30.41,NE,38,3.6,6.9,75,0.00,-SN,,0.00,127.0,WeatherDisplay:10.37,2013-02-21 15:02:00,
2013-02-21 10:07:00,21.7,15.0,30.42,North,5,1.4,3.5,75,0.00,-SN,,0.00,128.0,WeatherDisplay:10.37,2013-02-21 15:07:00,
2013-02-21 10:12:00,21.8,15.1,30.42,NE,48,2.5,4.6,75,0.00,-SN,,0.00,134.0,WeatherDisplay:10.37,2013-02-21 15:12:00,
2013-02-21 10:17:00,21.7,15.0,30.41,ENE,74,1.6,3.5,75,0.00,-SN,,0.00,148.0,WeatherDisplay:10.37,2013-02-21 15:17:00,
2013-02-21 10:22:00,21.7,14.7,30.42,NNE,13,3.6,8.1,74,0.00,-SN,,0.00,148.0,WeatherDisplay:10.37,2013-02-21 15:22:00,
2013-02-21 10:27:00,21.6,14.9,30.42,NNW,327,2.3,5.8,75,0.00,-SN,,0.00,137.0,WeatherDisplay:10.37,2013-02-21 15:27:00,
2013-02-21 10:32:00,21.7,15.0,30.42,NNE,24,1.9,3.5,75,0.00,-SN,,0.00,141.0,WeatherDisplay:10.37,2013-02-21 15:32:00,
2013-02-21 10:37:00,21.8,15.1,30.42,NNE,19,1.7,3.5,75,0.00,-SN,,0.00,137.0,WeatherDisplay:10.37,2013-02-21 15:37:00,
2013-02-21 10:42:00,22.0,15.3,30.42,ENE,57,4.7,9.2,75,0.00,-SN,,0.00,149.0,WeatherDisplay:10.37,2013-02-21 15:42:00,
2013-02-21 10:47:00,21.8,14.8,30.43,NNE,16,1.8,3.5,74,0.00,-SN,,0.00,158.0,WeatherDisplay:10.37,2013-02-21 15:47:00,
2013-02-21 10:52:00,21.9,14.9,30.44,NNE,26,2.9,4.6,74,0.00,-SN,,0.00,155.0,WeatherDisplay:10.37,2013-02-21 15:52:00,
2013-02-21 10:57:00,21.9,14.9,30.43,NNE,30,3.5,5.8,74,0.00,-SN,,0.00,162.0,WeatherDisplay:10.37,2013-02-21 15:57:00,
2013-02-21 11:02:00,22.0,15.0,30.45,East,79,1.9,4.6,74,0.00,-SN,,0.00,148.0,WeatherDisplay:10.37,2013-02-21 16:02:00,
2013-02-21 11:07:00,21.9,14.9,30.45,North,5,1.6,3.5,74,0.00,-SN,,0.00,149.0,WeatherDisplay:10.37,2013-02-21 16:07:00,
2013-02-21 11:12:00,21.9,14.6,30.44,ENE,76,2.5,5.8,73,0.00,-SN,,0.00,158.0,WeatherDisplay:10.37,2013-02-21 16:12:00,
2013-02-21 11:17:00,21.9,14.9,30.44,NE,34,2.2,3.5,74,0.00,-SN,,0.00,174.0,WeatherDisplay:10.37,2013-02-21 16:17:00,
2013-02-21 11:22:00,21.9,14.6,30.43,NE,55,3.9,5.8,73,0.00,-SN,,0.00,190.0,WeatherDisplay:10.37,2013-02-21 16:22:00,
2013-02-21 11:27:00,21.9,14.6,30.43,NNW,348,3.4,5.8,73,0.00,-SN,,0.00,202.0,WeatherDisplay:10.37,2013-02-21 16:27:00,
2013-02-21 11:32:00,21.8,14.5,30.43,NNE,24,2.0,3.5,73,0.00,-SN,,0.00,199.0,WeatherDisplay:10.37,2013-02-21 16:32:00,
2013-02-21 11:37:00,21.9,14.3,30.43,NNE,17,2.3,3.5,72,0.00,-SN,,0.00,200.0,WeatherDisplay:10.37,2013-02-21 16:37:00,
2013-02-21 11:42:00,21.8,14.2,30.44,NE,36,2.0,3.5,72,0.00,-SN,,0.00,207.0,WeatherDisplay:10.37,2013-02-21 16:42:00,
2013-02-21 11:47:00,21.9,14.3,30.44,ENE,63,3.0,3.5,72,0.00,-SN,,0.00,232.0,WeatherDisplay:10.37,2013-02-21 16:47:00,
2013-02-21 11:52:00,21.9,14.3,30.43,North,355,3.3,4.6,72,0.00,-SN,,0.00,248.0,WeatherDisplay:10.37,2013-02-21 16:52:00,
2013-02-21 11:57:00,21.9,14.3,30.43,NE,51,2.4,3.5,72,0.00,-SN,,0.00,241.0,WeatherDisplay:10.37,2013-02-21 16:57:00,
2013-02-21 12:02:00,22.3,14.3,30.43,ENE,65,2.4,3.5,71,0.00,-SN,,0.00,257.0,WeatherDisplay:10.37,2013-02-21 17:02:00,
2013-02-21 12:07:00,22.2,14.2,30.42,NNW,336,1.2,3.5,71,0.00,-SN,,0.00,262.0,WeatherDisplay:10.37,2013-02-21 17:07:00,
2013-02-21 12:12:00,22.4,14.4,30.43,NE,51,0.7,2.3,71,0.00,OVC,,0.00,276.0,WeatherDisplay:10.37,2013-02-21 17:12:00,
2013-02-21 12:17:00,22.6,14.3,30.42,North,355,1.3,2.3,70,0.00,OVC,,0.00,309.0,WeatherDisplay:10.37,2013-02-21 17:17:00,
2013-02-21 12:22:00,22.8,14.1,30.42,NNW,340,1.7,3.5,69,0.00,OVC,,0.00,327.0,WeatherDisplay:10.37,2013-02-21 17:22:00,
2013-02-21 12:27:00,22.9,14.2,30.42,NW,304,1.6,3.5,69,0.00,OVC,,0.00,329.0,WeatherDisplay:10.37,2013-02-21 17:27:00,
2013-02-21 12:32:00,23.0,14.3,30.42,NNE,32,2.0,4.6,69,0.00,OVC,,0.00,316.0,WeatherDisplay:10.37,2013-02-21 17:32:00,
2013-02-21 12:37:00,23.1,14.4,30.41,ENE,71,1.6,3.5,69,0.00,OVC,,0.00,362.0,WeatherDisplay:10.37,2013-02-21 17:37:00,
2013-02-21 12:42:00,23.4,14.7,30.41,NNE,27,2.6,4.6,69,0.00,OVC,,0.00,394.0,WeatherDisplay:10.37,2013-02-21 17:42:00,
2013-02-21 12:47:00,23.4,14.7,30.41,ENE,63,1.8,2.3,69,0.00,OVC,,0.00,387.0,WeatherDisplay:10.37,2013-02-21 17:47:00,
2013-02-21 12:52:00,23.3,14.0,30.41,NNE,28,3.1,5.0,67,0.00,OVC,,0.00,339.0,WeatherDisplay:10.37,2013-02-21 17:52:00,
2013-02-21 12:57:00,23.2,14.2,30.41,ENE,70,1.1,3.5,68,0.00,OVC,,0.00,339.0,WeatherDisplay:10.37,2013-02-21 17:57:00,
2013-02-21 13:02:00,23.3,14.6,30.41,NNE,25,3.2,4.6,69,0.00,OVC,,0.00,325.0,WeatherDisplay:10.37,2013-02-21 18:02:00,
2013-02-21 13:07:00,23.4,14.4,30.42,ENE,63,2.3,3.5,68,0.00,OVC,,0.00,306.0,WeatherDisplay:10.37,2013-02-21 18:07:00,
2013-02-21 13:12:00,23.5,14.5,30.43,NNE,29,1.9,3.5,68,0.00,OVC,,0.00,315.0,WeatherDisplay:10.37,2013-02-21 18:12:00,
2013-02-21 13:17:00,23.5,14.5,30.43,NNW,335,0.8,2.3,68,0.00,OVC,,0.00,323.0,WeatherDisplay:10.37,2013-02-21 18:17:00,
2013-02-21 13:22:00,23.7,14.7,30.43,NNE,30,0.9,2.3,68,0.00,OVC,,0.00,320.0,WeatherDisplay:10.37,2013-02-21 18:22:00,
2013-02-21 13:27:00,24.0,15.0,30.44,North,360,0.6,2.3,68,0.00,OVC,,0.00,318.0,WeatherDisplay:10.37,2013-02-21 18:27:00,
2013-02-21 13:32:00,24.0,15.0,30.44,WNW,288,1.8,3.5,68,0.00,OVC,,0.00,313.0,WeatherDisplay:10.37,2013-02-21 18:32:00,
2013-02-21 13:37:00,24.3,14.9,30.44,NW,321,1.3,2.3,67,0.00,OVC,,0.00,290.0,WeatherDisplay:10.37,2013-02-21 18:37:00,
2013-02-21 13:42:00,24.2,14.8,30.44,West,266,2.0,5.0,67,0.00,OVC,,0.00,287.0,WeatherDisplay:10.37,2013-02-21 18:42:00,
2013-02-21 13:47:00,23.9,14.5,30.43,West,259,3.2,3.5,67,0.00,OVC,,0.00,295.0,WeatherDisplay:10.37,2013-02-21 18:47:00,
2013-02-21 13:52:00,23.8,15.1,30.43,NNE,21,2.1,3.5,69,0.00,OVC,,0.00,278.0,WeatherDisplay:10.37,2013-02-21 18:52:00,
2013-02-21 13:57:00,24.2,15.2,30.42,NNE,17,3.4,6.9,68,0.00,OVC,,0.00,251.0,WeatherDisplay:10.37,2013-02-21 18:57:00,
2013-02-21 14:02:00,24.2,14.8,30.42,NNE,15,1.6,3.5,67,0.00,OVC,,0.00,248.0,WeatherDisplay:10.37,2013-02-21 19:02:00,
2013-02-21 14:07:00,24.3,15.3,30.42,NE,43,2.3,3.5,68,0.00,OVC,,0.00,295.0,WeatherDisplay:10.37,2013-02-21 19:07:00,
2013-02-21 14:12:00,24.5,15.4,30.41,NE,50,2.2,3.5,68,0.00,OVC,,0.00,308.0,WeatherDisplay:10.37,2013-02-21 19:12:00,
2013-02-21 14:17:00,24.5,15.1,30.40,North,5,1.8,3.5,67,0.00,OVC,,0.00,316.0,WeatherDisplay:10.37,2013-02-21 19:17:00,
2013-02-21 14:22:00,24.6,14.9,30.39,West,271,2.4,3.5,66,0.00,OVC,,0.00,290.0,WeatherDisplay:10.37,2013-02-21 19:22:00,
2013-02-21 14:27:00,24.8,15.4,30.39,NE,52,1.5,2.0,67,0.00,OVC,,0.00,501.0,WeatherDisplay:10.37,2013-02-21 19:27:00,
2013-02-21 14:32:00,25.2,15.1,30.40,North,5,2.1,3.5,65,0.00,OVC,,0.00,288.0,WeatherDisplay:10.37,2013-02-21 19:32:00,
2013-02-21 14:37:00,25.2,14.7,30.40,East,91,1.1,5.0,64,0.00,OVC,,0.00,339.0,WeatherDisplay:10.37,2013-02-21 19:37:00,
2013-02-21 14:42:00,25.4,15.6,30.40,ENE,67,1.7,3.5,66,0.00,OVC,,0.00,703.0,WeatherDisplay:10.37,2013-02-21 19:42:00,
2013-02-21 14:47:00,25.9,15.7,30.40,NNE,29,1.9,3.5,65,0.00,OVC,,0.00,281.0,WeatherDisplay:10.37,2013-02-21 19:47:00,
2013-02-21 14:52:00,26.2,15.7,30.39,WNW,293,2.4,6.9,64,0.00,OVC,,0.00,336.0,WeatherDisplay:10.37,2013-02-21 19:52:00,
2013-02-21 14:57:00,26.0,15.1,30.39,NNE,33,3.1,5.8,63,0.00,OVC,,0.00,327.0,WeatherDisplay:10.37,2013-02-21 19:57:00,
2013-02-21 15:02:00,25.6,15.1,30.40,NNE,30,1.7,4.6,64,0.00,OVC,,0.00,274.0,WeatherDisplay:10.37,2013-02-21 20:02:00,
2013-02-21 15:07:00,25.7,15.2,30.40,ENE,65,2.0,3.5,64,0.00,OVC,,0.00,531.0,WeatherDisplay:10.37,2013-02-21 20:07:00,
2013-02-21 15:12:00,26.0,15.8,30.39,NE,37,1.5,3.5,65,0.00,BKN,,0.00,274.0,WeatherDisplay:10.37,2013-02-21 20:12:00,
2013-02-21 15:17:00,26.3,15.4,30.38,East,97,5.4,10.4,63,0.00,BKN,,0.00,524.0,WeatherDisplay:10.37,2013-02-21 20:17:00,
2013-02-21 15:22:00,26.5,16.0,30.38,ENE,71,3.8,6.9,64,0.00,BKN,,0.00,513.0,WeatherDisplay:10.37,2013-02-21 20:22:00,
2013-02-21 15:27:00,26.6,15.7,30.38,NE,49,1.0,3.5,63,0.00,BKN,,0.00,466.0,WeatherDisplay:10.37,2013-02-21 20:27:00,
2013-02-21 15:32:00,26.6,15.3,30.36,North,9,4.1,6.9,62,0.00,BKN,,0.00,323.0,WeatherDisplay:10.37,2013-02-21 20:32:00,
2013-02-21 15:37:00,26.2,14.6,30.37,ENE,61,7.1,10.4,61,0.00,BKN,,0.00,232.0,WeatherDisplay:10.37,2013-02-21 20:37:00,
2013-02-21 15:42:00,26.0,14.8,30.36,NE,55,3.2,4.6,62,0.00,BKN,,0.00,380.0,WeatherDisplay:10.37,2013-02-21 20:42:00,
2013-02-21 15:47:00,26.5,15.6,30.35,NNE,22,6.9,8.1,63,0.00,BKN,,0.00,297.0,WeatherDisplay:10.37,2013-02-21 20:47:00,
2013-02-21 15:52:00,26.2,14.9,30.35,East,81,4.2,9.0,62,0.00,BKN,,0.00,195.0,WeatherDisplay:10.37,2013-02-21 20:52:00,
2013-02-21 15:57:00,26.0,14.8,30.35,NE,36,3.5,3.5,62,0.00,BKN,,0.00,325.0,WeatherDisplay:10.37,2013-02-21 20:57:00,
2013-02-21 16:02:00,26.3,15.0,30.35,ENE,74,3.4,8.1,62,0.00,BKN,,0.00,213.0,WeatherDisplay:10.37,2013-02-21 21:02:00,
2013-02-21 16:07:00,26.4,14.8,30.36,East,87,6.9,9.0,61,0.00,BKN,,0.00,227.0,WeatherDisplay:10.37,2013-02-21 21:07:00,
2013-02-21 16:12:00,26.1,14.8,30.36,NE,46,3.4,9.2,62,0.00,BKN,,0.00,169.0,WeatherDisplay:10.37,2013-02-21 21:12:00,
2013-02-21 16:18:00,26.3,15.0,30.36,East,84,3.9,6.9,62,0.00,BKN,,0.00,229.0,WeatherDisplay:10.37,2013-02-21 21:18:00,
2013-02-21 16:23:00,26.0,14.4,30.37,NNE,24,5.2,6.9,61,0.00,BKN,,0.00,167.0,WeatherDisplay:10.37,2013-02-21 21:23:00,
2013-02-21 16:28:00,25.8,14.2,30.38,East,84,7.3,10.4,61,0.00,BKN,,0.00,171.0,WeatherDisplay:10.37,2013-02-21 21:28:00,
2013-02-21 16:33:00,25.6,14.7,30.38,East,88,5.4,7.0,63,0.00,BKN,,0.00,134.0,WeatherDisplay:10.37,2013-02-21 21:33:00,
2013-02-21 16:38:00,25.4,14.2,30.39,East,91,6.3,9.0,62,0.00,BKN,,0.00,125.0,WeatherDisplay:10.37,2013-02-21 21:38:00,
2013-02-21 16:43:00,25.2,14.4,30.39,East,88,3.8,3.8,63,0.00,BKN,,0.00,120.0,WeatherDisplay:10.37,2013-02-21 21:43:00,
2013-02-21 16:48:00,25.3,14.5,30.39,East,92,4.2,8.1,63,0.00,BKN,,0.00,114.0,WeatherDisplay:10.37,2013-02-21 21:48:00,
2013-02-21 16:53:00,25.2,14.4,30.40,East,84,5.1,8.0,63,0.00,BKN,,0.00,105.0,WeatherDisplay:10.37,2013-02-21 21:53:00,
2013-02-21 16:58:00,25.1,13.9,30.41,ENE,65,5.5,8.1,62,0.00,BKN,,0.00,100.0,WeatherDisplay:10.37,2013-02-21 21:58:00,
2013-02-21 17:03:00,25.0,13.8,30.41,East,97,8.8,9.2,62,0.00,BKN,,0.00,90.0,WeatherDisplay:10.37,2013-02-21 22:03:00,
2013-02-21 17:08:00,24.8,14.0,30.41,ENE,58,3.0,7.0,63,0.00,BKN,,0.00,81.0,WeatherDisplay:10.37,2013-02-21 22:08:00,
2013-02-21 17:13:00,24.7,13.5,30.42,East,86,5.0,8.1,62,0.00,BKN,,0.00,70.0,WeatherDisplay:10.37,2013-02-21 22:13:00,
2013-02-21 17:18:00,24.6,13.8,30.42,East,86,5.9,8.1,63,0.00,BKN,,0.00,62.0,WeatherDisplay:10.37,2013-02-21 22:18:00,
2013-02-21 17:23:00,24.5,13.3,30.42,East,90,4.7,8.1,62,0.00,BKN,,0.00,56.0,WeatherDisplay:10.37,2013-02-21 22:23:00,
2013-02-21 17:28:00,24.4,13.2,30.41,East,82,4.6,10.4,62,0.00,BKN,,0.00,49.0,WeatherDisplay:10.37,2013-02-21 22:28:00,
2013-02-21 17:33:00,24.3,13.5,30.41,East,88,7.3,8.1,63,0.00,BKN,,0.00,44.0,WeatherDisplay:10.37,2013-02-21 22:33:00,
2013-02-21 17:38:00,24.2,13.4,30.41,ESE,109,6.1,8.1,63,0.00,BKN,,0.00,39.0,WeatherDisplay:10.37,2013-02-21 22:38:00,
2013-02-21 17:43:00,24.1,13.3,30.41,East,92,6.2,8.1,63,0.00,BKN,,0.00,30.0,WeatherDisplay:10.37,2013-02-21 22:43:00,
2013-02-21 17:48:00,24.0,13.2,30.41,East,86,6.5,6.9,63,0.00,BKN,,0.00,23.0,WeatherDisplay:10.37,2013-02-21 22:48:00,
2013-02-21 17:53:00,23.9,13.1,30.41,East,96,5.6,10.4,63,0.00,BKN,,0.00,18.0,WeatherDisplay:10.37,2013-02-21 22:53:00,
2013-02-21 17:58:00,23.9,13.5,30.40,ENE,65,6.5,10.0,64,0.00,BKN,,0.00,14.0,WeatherDisplay:10.37,2013-02-21 22:58:00,
2013-02-21 18:03:00,23.8,13.7,30.40,East,79,7.3,9.2,65,0.00,BKN,,0.00,9.0,WeatherDisplay:10.37,2013-02-21 23:03:00,
2013-02-21 18:08:00,23.5,13.8,30.41,East,82,3.7,8.1,66,0.00,BKN,,0.00,5.0,WeatherDisplay:10.37,2013-02-21 23:08:00,
2013-02-21 18:13:00,23.3,14.0,30.40,East,84,7.9,10.4,67,0.00,BKN,,0.00,0.0,WeatherDisplay:10.37,2013-02-21 23:13:00,
2013-02-21 18:18:00,23.1,13.8,30.41,East,96,8.8,12.7,67,0.00,BKN,,0.00,0.0,WeatherDisplay:10.37,2013-02-21 23:18:00,
2013-02-21 18:23:00,22.9,13.9,30.40,East,93,6.0,9.2,68,0.00,BKN,,0.00,0.0,WeatherDisplay:10.37,2013-02-21 23:23:00,
2013-02-21 18:28:00,22.7,14.1,30.40,East,81,8.2,10.4,69,0.00,BKN,,0.00,0.0,WeatherDisplay:10.37,2013-02-21 23:28:00,
2013-02-21 18:33:00,22.6,14.3,30.41,East,83,3.2,6.0,70,0.00,BKN,,0.00,0.0,WeatherDisplay:10.37,2013-02-21 23:33:00,
2013-02-21 18:38:00,22.4,14.1,30.41,East,88,8.0,11.5,70,0.00,BKN,,0.00,0.0,WeatherDisplay:10.37,2013-02-21 23:38:00,
2013-02-21 18:43:00,22.2,13.9,30.41,East,100,5.3,10.4,70,0.00,BKN,,0.00,0.0,WeatherDisplay:10.37,2013-02-21 23:43:00,
2013-02-21 18:48:00,22.0,14.0,30.41,East,88,4.6,11.5,71,0.00,BKN,,0.00,0.0,WeatherDisplay:10.37,2013-02-21 23:48:00,
2013-02-21 18:53:00,21.8,13.8,30.41,East,98,2.7,3.5,71,0.00,BKN,,0.00,0.0,WeatherDisplay:10.37,2013-02-21 23:53:00,
2013-02-21 18:58:00,21.7,14.1,30.42,SE,127,4.2,5.8,72,0.00,BKN,,0.00,0.0,WeatherDisplay:10.37,2013-02-21 23:58:00,
2013-02-21 19:03:00,21.6,14.0,30.42,East,96,3.3,5.0,72,0.00,BKN,,0.00,0.0,WeatherDisplay:10.37,2013-02-22 00:03:00,
2013-02-21 19:08:00,21.6,14.0,30.41,ESE,116,4.3,6.9,72,0.00,BKN,,0.00,0.0,WeatherDisplay:10.37,2013-02-22 00:08:00,
2013-02-21 19:13:00,21.5,14.2,30.41,ESE,104,6.0,8.1,73,0.00,BKN,,0.00,0.0,WeatherDisplay:10.37,2013-02-22 00:13:00,
2013-02-21 19:18:00,21.5,14.2,30.40,East,97,4.7,8.0,73,0.00,BKN,,0.00,0.0,WeatherDisplay:10.37,2013-02-22 00:18:00,
2013-02-21 19:23:00,21.4,14.1,30.40,ENE,71,5.8,11.5,73,0.00,BKN,,0.00,0.0,WeatherDisplay:10.37,2013-02-22 00:23:00,
2013-02-21 19:28:00,21.3,14.3,30.39,East,93,3.6,5.8,74,0.00,BKN,,0.00,0.0,WeatherDisplay:10.37,2013-02-22 00:28:00,
2013-02-21 19:33:00,21.3,14.3,30.39,East,84,7.5,10.4,74,0.00,BKN,,0.00,0.0,WeatherDisplay:10.37,2013-02-22 00:33:00,
2013-02-21 19:38:00,21.3,14.6,30.39,ESE,108,7.8,12.7,75,0.00,BKN,,0.00,0.0,WeatherDisplay:10.37,2013-02-22 00:38:00,
2013-02-21 19:43:00,21.3,14.6,30.39,East,94,3.2,5.8,75,0.00,BKN,,0.00,0.0,WeatherDisplay:10.37,2013-02-22 00:43:00,
2013-02-21 19:48:00,21.3,14.6,30.39,East,85,5.8,8.1,75,0.00,BKN,,0.00,0.0,WeatherDisplay:10.37,2013-02-22 00:48:00,
2013-02-21 19:53:00,21.3,14.6,30.39,East,94,5.0,9.2,75,0.00,BKN,,0.00,0.0,WeatherDisplay:10.37,2013-02-22 00:53:00,
2013-02-21 19:58:00,21.3,14.9,30.39,East,80,3.8,4.6,76,0.00,BKN,,0.00,0.0,WeatherDisplay:10.37,2013-02-22 00:58:00,
2013-02-21 20:03:00,21.3,14.9,30.39,East,84,2.6,5.0,76,0.00,BKN,,0.00,0.0,WeatherDisplay:10.37,2013-02-22 01:03:00,
2013-02-21 20:08:00,21.3,15.2,30.39,East,88,1.8,3.5,77,0.00,BKN,,0.00,0.0,WeatherDisplay:10.37,2013-02-22 01:08:00,
2013-02-21 20:13:00,21.3,15.2,30.39,East,87,5.3,6.9,77,0.00,BKN,,0.00,0.0,WeatherDisplay:10.37,2013-02-22 01:13:00,
2013-02-21 20:18:00,21.3,15.2,30.39,East,84,4.8,7.0,77,0.00,BKN,,0.00,0.0,WeatherDisplay:10.37,2013-02-22 01:18:00,
2013-02-21 20:23:00,21.4,15.3,30.38,East,86,4.6,7.0,77,0.00,BKN,,0.00,0.0,WeatherDisplay:10.37,2013-02-22 01:23:00,
2013-02-21 20:28:00,21.4,15.3,30.37,East,85,9.8,16.0,77,0.00,BKN,,0.00,0.0,WeatherDisplay:10.37,2013-02-22 01:28:00,
2013-02-21 20:33:00,21.5,15.1,30.37,East,92,9.0,12.7,76,0.00,BKN,,0.00,0.0,WeatherDisplay:10.37,2013-02-22 01:33:00,
2013-02-21 20:38:00,21.5,15.1,30.36,East,101,6.9,11.5,76,0.00,BKN,,0.00,0.0,WeatherDisplay:10.37,2013-02-22 01:38:00,
2013-02-21 20:43:00,21.5,15.4,30.37,ESE,107,11.8,15.0,77,0.00,BKN,,0.00,0.0,WeatherDisplay:10.37,2013-02-22 01:43:00,
2013-02-21 20:48:00,21.4,15.3,30.37,East,82,6.6,10.4,77,0.00,BKN,,0.00,0.0,WeatherDisplay:10.37,2013-02-22 01:48:00,
2013-02-21 20:53:00,21.4,15.3,30.37,ENE,74,3.9,5.8,77,0.00,OVC,,0.00,0.0,WeatherDisplay:10.37,2013-02-22 01:53:00,
2013-02-21 20:58:00,21.4,15.3,30.36,ESE,106,4.4,8.1,77,0.00,OVC,,0.00,0.0,WeatherDisplay:10.37,2013-02-22 01:58:00,
2013-02-21 21:03:00,21.4,15.6,30.36,East,86,6.2,13.8,78,0.00,OVC,,0.00,0.0,WeatherDisplay:10.37,2013-02-22 02:03:00,
2013-02-21 21:08:00,21.4,15.6,30.36,East,94,4.6,8.1,78,0.00,OVC,,0.00,0.0,WeatherDisplay:10.37,2013-02-22 02:08:00,
2013-02-21 21:13:00,21.5,16.0,30.37,East,100,4.8,6.9,79,0.00,OVC,,0.00,0.0,WeatherDisplay:10.37,2013-02-22 02:13:00,
2013-02-21 21:18:00,21.6,16.1,30.37,East,92,3.4,4.6,79,0.00,OVC,,0.00,0.0,WeatherDisplay:10.37,2013-02-22 02:18:00,
2013-02-21 21:23:00,21.6,16.1,30.36,East,96,5.9,10.4,79,0.00,OVC,,0.00,0.0,WeatherDisplay:10.37,2013-02-22 02:23:00,
2013-02-21 21:28:00,21.7,16.2,30.36,East,79,11.1,14.0,79,0.00,OVC,,0.00,0.0,WeatherDisplay:10.37,2013-02-22 02:28:00,
2013-02-21 21:33:00,21.7,16.5,30.37,East,88,4.8,6.9,80,0.00,OVC,,0.00,0.0,WeatherDisplay:10.37,2013-02-22 02:33:00,
2013-02-21 21:38:00,21.7,16.5,30.36,East,82,9.0,12.7,80,0.00,OVC,,0.00,0.0,WeatherDisplay:10.37,2013-02-22 02:38:00,
2013-02-21 21:43:00,21.7,16.5,30.37,East,92,3.6,5.8,80,0.00,OVC,,0.00,0.0,WeatherDisplay:10.37,2013-02-22 02:43:00,
2013-02-21 21:48:00,21.7,16.5,30.36,East,85,4.2,9.2,80,0.00,OVC,,0.00,0.0,WeatherDisplay:10.37,2013-02-22 02:48:00,
2013-02-21 21:53:00,21.7,16.5,30.36,ENE,73,8.8,12.7,80,0.00,OVC,,0.00,0.0,WeatherDisplay:10.37,2013-02-22 02:53:00,
2013-02-21 21:58:00,21.7,16.8,30.37,East,80,4.4,7.0,81,0.00,OVC,,0.00,0.0,WeatherDisplay:10.37,2013-02-22 02:58:00,
2013-02-21 22:03:00,21.7,16.8,30.37,East,90,6.9,9.0,81,0.00,OVC,,0.00,0.0,WeatherDisplay:10.37,2013-02-22 03:03:00,
2013-02-21 22:08:00,21.8,16.9,30.36,East,80,8.7,11.0,81,0.00,OVC,,0.00,0.0,WeatherDisplay:10.37,2013-02-22 03:08:00,
2013-02-21 22:13:00,21.7,16.8,30.36,East,86,8.9,10.4,81,0.00,OVC,,0.00,0.0,WeatherDisplay:10.37,2013-02-22 03:13:00,
2013-02-21 22:18:00,21.7,16.8,30.36,East,95,5.8,10.4,81,0.00,OVC,,0.00,0.0,WeatherDisplay:10.37,2013-02-22 03:18:00,
2013-02-21 22:23:00,21.8,16.9,30.36,East,84,4.8,5.8,81,0.00,OVC,,0.00,0.0,WeatherDisplay:10.37,2013-02-22 03:23:00,
2013-02-21 22:28:00,21.8,16.9,30.36,East,80,6.3,13.8,81,0.00,OVC,,0.00,0.0,WeatherDisplay:10.37,2013-02-22 03:28:00,
2013-02-21 22:33:00,21.8,16.9,30.36,East,96,10.8,12.7,81,0.00,OVC,,0.00,0.0,WeatherDisplay:10.37,2013-02-22 03:33:00,
2013-02-21 22:38:00,21.7,16.8,30.35,East,98,7.8,10.4,81,0.00,OVC,,0.00,0.0,WeatherDisplay:10.37,2013-02-22 03:38:00,
2013-02-21 22:43:00,21.7,17.1,30.35,East,92,6.7,11.5,82,0.00,OVC,,0.00,0.0,WeatherDisplay:10.37,2013-02-22 03:43:00,
2013-02-21 22:48:00,21.7,17.1,30.34,ESE,109,6.3,10.4,82,0.00,OVC,,0.00,0.0,WeatherDisplay:10.37,2013-02-22 03:48:00,
2013-02-21 22:53:00,21.7,17.1,30.35,ESE,115,5.5,9.2,82,0.00,OVC,,0.00,0.0,WeatherDisplay:10.37,2013-02-22 03:53:00,
2013-02-21 22:58:00,21.8,17.2,30.35,ESE,109,6.2,12.7,82,0.00,OVC,,0.00,0.0,WeatherDisplay:10.37,2013-02-22 03:58:00,
2013-02-21 23:03:00,21.8,17.2,30.34,ENE,73,6.0,10.4,82,0.00,OVC,,0.00,0.0,WeatherDisplay:10.37,2013-02-22 04:03:00,
2013-02-21 23:08:00,21.8,17.2,30.35,East,93,3.7,5.8,82,0.00,OVC,,0.00,0.0,WeatherDisplay:10.37,2013-02-22 04:08:00,
2013-02-21 23:13:00,21.8,17.4,30.35,East,91,3.3,6.0,83,0.00,OVC,,0.00,0.0,WeatherDisplay:10.37,2013-02-22 04:13:00,
2013-02-21 23:18:00,21.8,17.4,30.34,East,96,6.7,6.9,83,0.00,OVC,,0.00,0.0,WeatherDisplay:10.37,2013-02-22 04:18:00,
2013-02-21 23:23:00,21.9,17.5,30.35,ESE,102,5.1,10.4,83,0.00,OVC,,0.00,0.0,WeatherDisplay:10.37,2013-02-22 04:23:00,
2013-02-21 23:28:00,21.9,17.5,30.35,East,97,9.0,11.5,83,0.00,OVC,,0.00,0.0,WeatherDisplay:10.37,2013-02-22 04:28:00,
2013-02-21 23:33:00,21.9,17.5,30.34,East,80,6.6,11.5,83,0.00,OVC,,0.00,0.0,WeatherDisplay:10.37,2013-02-22 04:33:00,
2013-02-21 23:38:00,21.9,17.5,30.34,East,92,2.2,3.5,83,0.00,OVC,,0.00,0.0,WeatherDisplay:10.37,2013-02-22 04:38:00,
2013-02-21 23:43:00,21.9,17.5,30.34,ESE,108,4.8,5.8,83,0.00,OVC,,0.00,0.0,WeatherDisplay:10.37,2013-02-22 04:43:00,
2013-02-21 23:48:00,21.9,17.5,30.34,ENE,78,4.8,9.2,83,0.00,OVC,,0.00,0.0,WeatherDisplay:10.37,2013-02-22 04:48:00,
2013-02-21 23:53:00,22.0,17.6,30.33,East,90,4.7,6.0,83,0.00,OVC,,0.00,0.0,WeatherDisplay:10.37,2013-02-22 04:53:00,
2013-02-21 23:58:00,22.0,17.6,30.33,ENE,63,7.2,10.4,83,0.00,OVC,,0.00,0.0,WeatherDisplay:10.37,2013-02-22 04:58:00,